{"data":{"norad_id":67015,"epoch":"2026-05-25T00:44:21.157152Z","epoch_age_seconds":86161,"freshness":"FRESH","line1":"1 67015U 25293N   26145.03080043  .00002004  00000+0  17564-3 0  9997","line2":"2 67015  70.0009 261.9439 0003390 270.9791  89.0980 14.98335946 26320","mean_motion":14.98335946,"eccentricity":0.000339,"inclination_deg":70.0009,"raan_deg":261.9439,"arg_perigee_deg":270.9791,"mean_anomaly_deg":89.098,"bstar":0.00017564,"rev_number":2632,"period_min":96.106617734445,"perigee_km":569.68139433403,"apogee_km":574.39361264739,"semimajor_km":6950.1745034907,"source":"CELESTRAK","updated_at":"2026-05-25T13:38:21.432099Z"}}